DUBAISAT-1

Last updated on Sun Mar 15 2026 00:02:35 GMT+0000 (Coordinated Universal Time)

1 35682U 09041B 26073.32194134 .00001397 00000+0 21537-3 0 9993 2 35682 97.9881 207.7135 0010781 22.2800 337.8875 14.74921175891116
UTC large
Height (km)
Speed (km/s)
/
Latitude / Longitude
Inclination (degrees)
Orbital Period (minutes)
Azimuth
Elevation
Range (km)
Doppler Factor

Next 0 passes for location: London (51.5072 / 0.1276)

Sorry there are no passes over London.